Showing default

DMSP 5D-2 F11 (USA 73), 21798

Orbit data source: Space-Track

DMSP 5D-2 F11 (USA 73), 21798 is a payload satellite owned by USAF SSD (US) in SSO that was launched on Thu, 28 Nov 1991 UTC via an ATLAS E launch vehicle from the Air Force Western Test Range (AFWTR). Payload-class satellites include a variety of spacecraft equipped with specific instruments for various scientific and technological missions. These include communications satellites like Starlink; space stations such as the ISS; scientific satellites like the Hubble; Earth observation satellites from companies like Planet Labs, Umbra, and HawkEye 360; GPS; miniature CubeSats for education and research; and military/defense satellites.

Loading next visibility...
Identifier
21798, 1991-082A
Orbit
SSO
Country
Flag of USUS
Related business
Manufacturer
GE/East Windsor
Mission
Non-operational Defense Weather
Bus & Motor
BLOCK 5D, STAR 37S
Mass
1,456 kg wet, 749 kg dry
Launch date (UTC)
1991-11-28 (34 years ago)
Launch vehicle
ATLAS E
Launch site
Air Force Western Test Range (AFWTR)
Object type
Payload
Rocket body
Debris
Shape & HBR
Cyl + 1 Pan, 2.5 m
Radar Cross Section
4.290 m², Large (>1 m²)

Expand to show TLE details & history
Last TLE update: 9 hours ago

TLE from 9 hours ago
0 DMSP 5D-2 F11 (USA 73)
1 21798U 91082A   26121.47540612  .00000141  00000-0  90660-4 0  9999
2 21798  98.6940 150.7464 0013362  49.4668 310.7669 14.17438689778515
Epoch: 2026-05-01T11:24Z
TLE epoch observation values (Epoch: 2026-05-01T11:24:35.088Z)
Latitude
-0°
Longitude
120.19307°
Altitude
830.653 km
Speed
7.441 km/s
True Right ascension
10h 02m 59s
True Declination
0° 00' 00"
Sunlit
Object was in daylight at epoch
Visualization orbit readout
Latitude
Unknown
Longitude
Unknown
Altitude
Unknown
Speed
Unknown
Apparent Right ascension
Unknown
Apparent Declination
Unknown
Sunlit
N/A
Visualization observer readout
Local Sidereal Time
04:04:35
Azimuth
Unknown
Elevation
Unknown
Doppler factor
Unknown
Orbital elements
Apogee altitude
840.822 km
Perigee altitude
821.556 km
Semi-major axis
7,209.326 km
Eccentricity
0.00134
Inclination
98.694°
RAAN
150.7464°
Arg. of periapsis
49.4668°
True anomaly
310.65081°
Mean anomaly
310.7669°
Eccentric anomaly
310.70887°
Mean motion
3.54569 °/min
Orbital period
101.53 mins
BSTAR
0.00009066
Loading maneuver chart data...
Computing Atmospheric mass density...

Documentation

Showing up to 5 results
|